Location: Unspecified
(0.0000°N, 0.0000°E)
Time: 07:39:15
(UTC+00:00)

APRIZESAT 1 (LATINSAT C) - Visible Passes

Search period start: 16 April 2024 00:00
Search period end: 26 April 2024 00:00
Orbit: 691 x 756 km, 98.6° (Epoch: 15 April)

Date Brightness Start Highest point End Pass type
(mag) Time Alt. Az. Time Alt. Az. Time Alt. Az.
16 Apr ? 04:03:11 10° NNE 04:07:41 74° NNE 04:07:41 74° NNE visible
17 Apr ? 03:15:50 10° NE 03:18:25 19° E 03:18:25 19° E visible
17 Apr ? 04:53:32 10° NNW 04:57:21 22° WNW 04:57:44 22° W visible
18 Apr ? 04:03:43 10° NNE 04:08:28 82° NE 04:08:28 82° NE visible
19 Apr ? 03:16:20 10° NE 03:19:10 20° E 03:19:10 20° E visible
19 Apr ? 04:54:04 10° NNW 04:57:52 22° WNW 04:58:30 22° W visible
20 Apr ? 04:04:14 10° NNE 04:09:13 88° ESE 04:09:13 88° ESE visible
21 Apr ? 03:16:51 10° NE 03:19:55 21° E 03:19:55 21° E visible
21 Apr ? 04:54:36 10° NNW 04:58:24 22° WNW 04:59:15 21° W visible
22 Apr ? 04:04:45 10° NNE 04:09:44 88° ESE 04:09:56 83° S visible
23 Apr ? 03:17:20 10° NE 03:20:37 21° E 03:20:37 21° E visible
23 Apr ? 04:55:07 10° NNW 04:58:55 22° WNW 04:59:57 21° W visible
24 Apr ? 04:05:15 10° NNE 04:10:15 89° ESE 04:10:38 77° S visible
25 Apr ? 03:17:50 10° NE 03:21:18 21° E 03:21:18 21° E visible
25 Apr ? 04:55:38 10° NNW 04:59:26 22° WNW 05:00:38 20° W visible
